Weather History for KHYA - June, 2014

Change the Weather History Date:

Saturday, June 21, 2014

  Actual Average Record
Temperature  
Mean Temperature 59 °F -  
Max Temperature 71 °F 74 °F 91 °F (2012)
Min Temperature 48 °F 59 °F 19 °F (2006)
Degree Days  
Heating Degree Days 6    
Growing Degree Days 9 (Base 50)    
Moisture  
Dew Point 48 °F    
Average Humidity 62    
Maximum Humidity 90    
Minimum Humidity 41    
Precipitation  
Precipitation 0.00 in - - ()
Sea Level Pressure  
Sea Level Pressure 29.93 in    
Wind  
Wind Speed 4 mph (SSW)    
Max Wind Speed 14 mph    
Max Gust Speed 17 mph    
Visibility 10 miles    
Events      
Averages and records for this station are not official NWS values.
T = Trace of Precipitation, MM = Missing Value Source: NWS Daily Summary

Daily Weather History Graph

Daily Weather History Graph

Search for Another Location

Airport or City:

Trip Planner

Search our weather history database for the weather conditions in past years. The results will help you decide how hot, cold, wet, or windy it might be!

Date:

Astronomy

Jun. 21, 2014 Rise Set
Actual Time 5:06 AM EDT 8:19 PM EDT
Civil Twilight 4:32 AM EDT 8:53 PM EDT
Nautical Twilight 3:48 AM EDT 9:37 PM EDT
Astronomical Twilight 2:55 AM EDT 10:30 PM EDT
Moon 1:21 AM EDT (6/21) 2:50 PM EDT (6/21)
Length of Visible Light 16h 20m
Length of Day
15h 12m
Waning Crescent, 30% of the Moon is Illuminated
Jun 21
Waning Crescent
Jun 27
New
Jul 5
First Quarter
Jul 12
Full
Jul 18
Last Quarter

Hourly Weather History & Observations

Time (EDT) Temp. Dew Point Humidity Pressure Visibility Wind Dir Wind Speed Gust Speed Precip Events Conditions
12:56 AM 50.0 °F 46.0 °F 86% 29.95 in 10.0 mi Calm Calm - N/A   Clear
1:56 AM 50.0 °F 46.0 °F 86% 29.94 in 10.0 mi Calm Calm - N/A   Clear
2:56 AM 48.9 °F 46.0 °F 90% 29.94 in 10.0 mi Calm Calm - N/A   Clear
3:56 AM 50.0 °F 46.0 °F 86% 29.94 in 10.0 mi Calm Calm - N/A   Clear
4:56 AM 50.0 °F 46.0 °F 86% 29.95 in 10.0 mi Calm Calm - N/A   Clear
6:56 AM 60.1 °F 52.0 °F 75% 29.96 in 10.0 mi NW 3.5 mph - N/A   Clear
7:56 AM 63.0 °F 50.0 °F 63% 29.96 in 10.0 mi NNW 6.9 mph - N/A   Clear
8:56 AM 66.0 °F 46.9 °F 50% 29.96 in 10.0 mi Variable 4.6 mph - N/A   Clear
9:56 AM 66.9 °F 45.0 °F 45% 29.95 in 10.0 mi Variable 5.8 mph - N/A   Clear
10:56 AM 69.1 °F 46.9 °F 45% 29.95 in 10.0 mi NNE 8.1 mph - N/A   Clear
11:56 AM 70.0 °F 45.0 °F 41% 29.93 in 10.0 mi Variable 5.8 mph - N/A   Clear
12:56 PM 70.0 °F 45.0 °F 41% 29.91 in 10.0 mi SW 5.8 mph - N/A   Scattered Clouds
1:56 PM 69.1 °F 48.0 °F 47% 29.90 in 10.0 mi South 9.2 mph 17.3 mph N/A   Clear
2:56 PM 69.1 °F 50.0 °F 51% 29.90 in 10.0 mi South 11.5 mph - N/A   Clear
3:56 PM 68.0 °F 48.0 °F 49% 29.90 in 10.0 mi SSW 12.7 mph - N/A   Clear
4:56 PM 66.9 °F 50.0 °F 54% 29.90 in 10.0 mi South 10.4 mph - N/A   Clear
5:56 PM 66.9 °F 48.9 °F 52% 29.90 in 10.0 mi SSW 13.8 mph - N/A   Clear
6:56 PM 64.9 °F 52.0 °F 63% 29.91 in 10.0 mi South 11.5 mph - N/A   Clear
7:56 PM 64.0 °F 53.1 °F 67% 29.91 in 10.0 mi SSW 8.1 mph - N/A   Clear
8:56 PM 63.0 °F 53.1 °F 70% 29.92 in 10.0 mi SSW 8.1 mph - N/A   Partly Cloudy
9:56 PM 63.0 °F 52.0 °F 67% 29.93 in 10.0 mi SSW 6.9 mph - N/A   Mostly Cloudy
10:56 PM 63.0 °F 48.9 °F 60% 29.92 in 10.0 mi South 6.9 mph - N/A   Overcast
11:56 PM 64.0 °F 48.9 °F 58% 29.91 in 10.0 mi SSW 6.9 mph - N/A   Overcast